Showing default

COSMOS 84, 1574

Orbit data source: Space-Track

COSMOS 84, 1574 is a payload satellite owned by OKB-10 (CIS) in LEO that was launched on Fri, 03 Sep 1965 UTC via a KOSMOS 65S3 launch vehicle from the Tyuratam Missile And Space Complex (TTMTR). Payload-class satellites include a variety of spacecraft equipped with specific instruments for various scientific and technological missions. These include communications satellites like Starlink; space stations such as the ISS; scientific satellites like the Hubble; Earth observation satellites from companies like Planet Labs, Umbra, and HawkEye 360; GPS; miniature CubeSats for education and research; and military/defense satellites.

Loading next visibility...
Identifier
1574, 1965-070E
Orbit
LEO
Country
Flag of CISCIS
Related business
Manufacturer
OKB-10
Mission
Spacecraft
Bus & Motor
STRELA-1 11F610, Unknown motor
Mass
50 kg wet, 50 kg dry
Launch date (UTC)
1965-09-03 (60 years ago)
Launch vehicle
KOSMOS 65S3
Launch site
Tyuratam Missile And Space Complex (TTMTR)
Object type
Payload
Rocket body
Debris
Shape & HBR
Unknown
Radar Cross Section
Medium (>0.1 m² and <1 m²)

Expand to show TLE details & history
Last TLE update: 21 hours ago

TLE from 21 hours ago
0 COSMOS 84
1 01574U 65070E   25303.29811005 -.00000070  00000-0  16815-3 0  9996
2 01574  56.0541 312.1121 0062018 294.2317 153.0626 12.37034433717981
Epoch: 2025-10-30T07:09Z
TLE epoch observation values (Epoch: 2025-10-30T07:09:16.708Z)
Latitude
56.1092°
Longitude
-108.33833°
Altitude
1,570.566 km
Speed
7.069 km/s
True Right ascension
02h 31m 21s
True Declination
55° 57' 58"
Sunlit
Object was in full shadow at epoch
Visualization orbit readout
Latitude
Unknown
Longitude
Unknown
Altitude
Unknown
Speed
Unknown
Apparent Right ascension
Unknown
Apparent Declination
Unknown
Sunlit
N/A
Visualization observer readout
Local Sidereal Time
23:29:46
Azimuth
Unknown
Elevation
Unknown
Doppler factor
Unknown
Orbital elements
Apogee altitude
1,568.001 km
Perigee altitude
1,470.048 km
Semi-major axis
7,897.161 km
Eccentricity
0.0062
Inclination
56.0541°
RAAN
312.1121°
Arg. of periapsis
294.2317°
True anomaly
153.38234°
Mean anomaly
153.0626°
Eccentric anomaly
153.22269°
Mean motion
3.09269 °/min
Orbital period
116.4 mins
BSTAR
0.00016815
Loading maneuver chart data...
Computing Atmospheric mass density...
Loading historical data...
Loading historical data...
Loading historical data...
Loading historical data...
Loading historical data...
Loading historical data...
Loading historical data...
Other satellites on launch #70 in the year 1965 (1965-09-03 UTC)

Documentation

Showing up to 5 results
|